Regional Weather Roundup
Issued by NWS

Home | Current Version | Previous Version | Graphics & Text | Print | Product List | Glossary On
Versions: 1 2 3 4 5 6 7 8 9 10 11 12 13 14 15 16 17 18 19 20 21 22 23 24 25 26 27 28 29 30 31 32 33 34 35 36 37 38 39 40 41 42 43 44 45 46 47 48 49 50
000
ASUS45 KABQ 220901
RWRNM
NEW MEXICO REGIONAL WEATHER ROUNDUP
NATIONAL WEATHER SERVICE ALBUQUERQUE NM
300 AM MDT FRI MAY 22 2015

NOTE: "FAIR" MEANS FEW OR NO CLOUDS BELOW 12,000 FEET AGL WITH NO
       SIGNIFICANT WEATHER OR OBSTRUCTIONS TO VISION.

      THIS PRODUCT IS RELEASED AS TWO VERSIONS.  ONE VERSION NEAR
      THE TOP OF THE HOUR CONTAINING PRELIMINARY DATA FROM ALBUQUERQUE
      AND OTHER STATIONS.  A FINAL VERSION WITH ADDITIONAL DATA IS
      ISSUED ABOUT 10 MINUTES AFTER THE HOUR.

NMZ501-503-504-510>518-221000-
NORTHWEST PLATEAU/NORTHCENTRAL MOUNTAINS

CITY           SKY/WX    TMP DP  RH WIND       PRES   REMARKS
FARMINGTON     MOCLDY    51  42  71 E13G21    30.02R
SANTA FE       MOCLDY    43  39  86 SE9       30.12F
TAOS           CLOUDY    39  30  70 S8        30.14F WCI  34

$$
NMZ402-403-502-505>509-221000-
WESTCENTRAL MOUNTAINS/SOUTHWEST MOUNTAINS

CITY           SKY/WX    TMP DP  RH WIND       PRES   REMARKS
GALLUP         CLEAR     42  27  55 NE5       30.05F
GRANTS         CLOUDY    45  44  95 S10G16    30.11F
SILVER CITY      N/A     45  19  36 N9        30.07S

$$
NMZ407-409-411-412-221000-
SOUTHERN DESERTS

CITY           SKY/WX    TMP DP  RH WIND       PRES   REMARKS
LORDSBURG      FAIR      50  18  27 S8        30.00R
DEMING         CLEAR     56  23  27 CALM      30.01S
HOLLOMAN AFB   CLEAR     50  50  99 N6        30.04S
ALAMOGORDO     CLEAR     54  50  87 N7        30.06R
T OR C         CLEAR     49  46  90 N3        30.03S

$$
NMZ519>523-221000-
CENTRAL VALLEYS/CENTRAL HIGHLANDS

CITY           SKY/WX    TMP DP  RH WIND       PRES   REMARKS
ALBUQUERQUE    PTCLDY    49  42  77 E15       30.09F
DOUBLE EAGLE   CLOUDY    46  44  91 N7        30.11S
MORIARTY ARPT  CLOUDY    43  40  88 E5        30.16S
CLINES CORNERS CLOUDY    39  38  96 E5        30.13F FOG
BELEN          CLOUDY    50  46  84 NE5       30.08F
SOCORRO        NOT AVBL

$$
NMZ524>526-539-540-221000-
SOUTHCENTRAL MOUNTAINS

CITY           SKY/WX    TMP DP  RH WIND       PRES   REMARKS
RUIDOSO        NOT AVBL

$$
NMZ527>531-221000-
NORTHEAST HIGHLANDS/NORTHEAST PLAINS

CITY           SKY/WX    TMP DP  RH WIND       PRES   REMARKS
LAS VEGAS      CLOUDY    40  39  97 SW10      30.16S WCI  33
RATON          LGT RAIN  41  41 100 S13       30.09
CLAYTON        CLOUDY    47  45  93 S16       30.10S FOG

$$
NMZ532>537-221000-
EASTCENTRAL PLAINS

CITY           SKY/WX    TMP DP  RH WIND       PRES   REMARKS
CANNON AFB     CLOUDY    48  48 100 S7        30.11F
CLOVIS AIRPORT CLOUDY    48  46  93 SE7       30.12S

$$
NMZ028-029-538-221000-
SOUTHEAST PLAINS

CITY           SKY/WX    TMP DP  RH WIND       PRES   REMARKS
ROSWELL        CLOUDY    52  50  93 S5        30.10F
ARTESIA        CLOUDY    54  54 100 S3        30.12S
CARLSBAD       CLOUDY    55  52  89 CALM      30.09F
HOBBS          CLOUDY    52  52 100 CALM      30.11S FOG


$$



USA.gov is the U.S. government's official web portal to all federal, state and local government web resources and services.